Powrót do katalogu

STARLINK-5487

AktywnyŁącznośćVLEO
NORAD 55652·PAYLOAD·🇺🇸 United States

Wystrzelony Feb 17, 2023 z Vandenberg Space Force Base

Loading…

Następne Przeloty (najbliższe 24 godziny)

TLE

ŚwieżeSource: CelesTrak SupGP

Epoka: Sep 14, 2026, 21:57 UTC

1 55652C 23021AA  26257.91506944  .00034216  00000+0  28675-2 0  2573
2 55652  70.0012  67.2862 0002661 271.2998 215.0282 14.98313223    16

Śledź STARLINK-5487 w czasie rzeczywistym z AllMySat

Download on the App Store